CZ-4 DEB, 27676

Orbit data source: Space-Track

CZ-4 DEB, 27676 is space debris in SSO originally from a launch on Thu, 14 Oct 1999 UTC launched from the Taiyaun Space Center, China (TSC). Debris objects in space refer to the collection of defunct objects orbiting the Earth. Examples of debris include non-operational satellites, rocket bodies, and fragments generated from explosions, collisions, or faulty payload assembly.

Loading next visibility...
Identifier
27676, 1999-057MQ
Orbit
SSO
Country
Flag of CNCN / PRC
Related business
Manufacturer
Unknown
Mission
Spacecraft
Bus & Motor
Unknown
Mass
Unknown
Launch date (UTC)
1999-10-14 (26 years ago)
Launch vehicle
Unknown
Launch site
Taiyaun Space Center, China (TSC)
Object type
Payload
Rocket body
Debris
Shape & HBR
Unknown shape, 0.1 m
Radar Cross Section
Small (<0.1 m²)

Expand to show TLE details & history
Last TLE update: 1 week ago

TLE from 1 week ago
0 CZ-4 DEB
1 27676U 99057MQ  25343.10940704  .00001412  00000-0  42849-3 0  9998
2 27676  98.6793  37.4498 0100688  99.6662 261.5917 14.40888601199301
Epoch: 2025-12-09T02:37Z
TLE epoch observation values (Epoch: 2025-12-09T02:37:32.768Z)
Latitude
-0.00005°
Longitude
-80.03553°
Altitude
769.72 km
Speed
7.463 km/s
True Right ascension
02h 29m 47s
True Declination
0° 00' 00"
Sunlit
Object was in full shadow at epoch
Visualization orbit readout
Latitude
Unknown
Longitude
Unknown
Altitude
Unknown
Speed
Unknown
Apparent Right ascension
Unknown
Apparent Declination
Unknown
Sunlit
N/A
Visualization observer readout
Local Sidereal Time
15:51:06
Azimuth
Unknown
Elevation
Unknown
Doppler factor
Unknown
Orbital elements
Apogee altitude
824.492 km
Perigee altitude
680.894 km
Semi-major axis
7,130.83 km
Eccentricity
0.01007
Inclination
98.6793°
RAAN
37.4498°
Arg. of periapsis
99.6662°
True anomaly
260.45247°
Mean anomaly
261.5917°
Eccentric anomaly
261.02187°
Mean motion
3.6044 °/min
Orbital period
99.88 mins
BSTAR
0.00042849
Loading maneuver chart data...
Computing Atmospheric mass density...

Documentation

Showing up to 5 results
|